Time,TemperatureF,DewpointF,PressureIn,WindDirection,WindDirectionDegrees,WindSpeedMPH,WindSpeedGustMPH,Humidity,HourlyPrecipIn,Conditions,Clouds,dailyrainin,SoftwareType,DateUTC
2013-01-14 00:04:00,44.0,37.9,30.19,NE,45,3.0,16.0,79,0.00,,,0.00,Weather View 32 v70,2013-01-14 08:04:00,
2013-01-14 00:13:00,44.0,37.9,30.19,NE,45,0.0,15.0,79,0.00,,,0.00,Weather View 32 v70,2013-01-14 08:13:00,
2013-01-14 00:19:00,43.0,36.9,30.19,NW,315,0.0,15.0,79,0.00,,,0.00,Weather View 32 v70,2013-01-14 08:19:00,
2013-01-14 00:23:00,43.0,37.2,30.20,NW,315,0.0,15.0,80,0.00,,,0.00,Weather View 32 v70,2013-01-14 08:23:00,
2013-01-14 00:28:00,43.0,37.2,30.20,NE,45,6.0,15.0,80,0.00,,,0.00,Weather View 32 v70,2013-01-14 08:28:00,
2013-01-14 00:33:00,43.0,37.2,30.20,WNW,292,0.0,15.0,80,0.00,,,0.00,Weather View 32 v70,2013-01-14 08:33:00,
2013-01-14 00:38:00,43.0,37.2,30.21,West,270,0.0,15.0,80,0.00,,,0.00,Weather View 32 v70,2013-01-14 08:38:00,
2013-01-14 00:43:00,43.0,37.2,30.20,ENE,67,2.0,15.0,80,0.00,,,0.00,Weather View 32 v70,2013-01-14 08:43:00,
2013-01-14 00:48:00,43.0,37.2,30.20,ENE,67,3.0,15.0,80,0.00,,,0.00,Weather View 32 v70,2013-01-14 08:48:00,
2013-01-14 00:53:00,43.0,37.2,30.20,NW,315,3.0,15.0,80,0.00,,,0.00,Weather View 32 v70,2013-01-14 08:53:00,
2013-01-14 00:58:00,43.0,37.2,30.21,NNE,22,3.0,13.0,80,0.00,,,0.00,Weather View 32 v70,2013-01-14 08:58:00,
2013-01-14 01:03:00,43.0,37.2,30.21,NNE,22,0.0,13.0,80,0.00,,,0.00,Weather View 32 v70,2013-01-14 09:03:00,
2013-01-14 01:08:00,43.0,37.2,30.21,NE,45,4.0,12.0,80,0.00,,,0.00,Weather View 32 v70,2013-01-14 09:08:00,
2013-01-14 01:13:00,43.0,37.2,30.21,NNE,22,7.0,13.0,80,0.00,,,0.00,Weather View 32 v70,2013-01-14 09:13:00,
2013-01-14 01:18:00,43.0,36.9,30.21,NE,45,10.0,14.0,79,0.00,,,0.00,Weather View 32 v70,2013-01-14 09:18:00,
2013-01-14 01:23:00,44.0,37.9,30.21,ENE,67,4.0,14.0,79,0.00,,,0.00,Weather View 32 v70,2013-01-14 09:23:00,
2013-01-14 01:28:00,43.0,36.9,30.21,NNE,22,6.0,14.0,79,0.00,,,0.00,Weather View 32 v70,2013-01-14 09:28:00,
2013-01-14 01:33:00,43.0,37.2,30.22,SW,225,0.0,14.0,80,0.00,,,0.00,Weather View 32 v70,2013-01-14 09:33:00,
2013-01-14 01:38:00,43.0,37.2,30.22,NNE,22,7.0,14.0,80,0.00,,,0.00,Weather View 32 v70,2013-01-14 09:38:00,
2013-01-14 01:43:00,43.0,37.2,30.22,ENE,67,2.0,14.0,80,0.00,,,0.00,Weather View 32 v70,2013-01-14 09:43:00,
2013-01-14 01:48:00,43.0,37.2,30.22,NE,45,10.0,14.0,80,0.00,,,0.00,Weather View 32 v70,2013-01-14 09:48:00,
2013-01-14 01:53:00,43.0,37.2,30.22,ENE,67,9.0,16.0,80,0.00,,,0.00,Weather View 32 v70,2013-01-14 09:53:00,
2013-01-14 01:58:00,43.0,37.2,30.22,SW,225,0.0,16.0,80,0.00,,,0.00,Weather View 32 v70,2013-01-14 09:58:00,
2013-01-14 02:03:00,43.0,37.2,30.22,ENE,67,8.0,16.0,80,0.00,,,0.00,Weather View 32 v70,2013-01-14 10:03:00,
2013-01-14 02:08:00,43.0,37.2,30.22,NNE,22,0.0,16.0,80,0.00,,,0.00,Weather View 32 v70,2013-01-14 10:08:00,
2013-01-14 02:13:00,43.0,37.2,30.22,ENE,67,2.0,16.0,80,0.00,,,0.00,Weather View 32 v70,2013-01-14 10:13:00,
2013-01-14 02:18:00,43.0,37.2,30.22,ENE,67,2.0,16.0,80,0.00,,,0.00,Weather View 32 v70,2013-01-14 10:18:00,
2013-01-14 02:23:00,43.0,37.2,30.23,ENE,67,5.0,16.0,80,0.00,,,0.00,Weather View 32 v70,2013-01-14 10:23:00,
2013-01-14 02:28:00,43.0,37.2,30.23,NNE,22,10.0,16.0,80,0.00,,,0.00,Weather View 32 v70,2013-01-14 10:28:00,
2013-01-14 02:33:00,43.0,37.2,30.23,ENE,67,2.0,16.0,80,0.00,,,0.00,Weather View 32 v70,2013-01-14 10:33:00,
2013-01-14 02:38:00,43.0,37.2,30.23,NE,45,4.0,16.0,80,0.00,,,0.00,Weather View 32 v70,2013-01-14 10:38:00,
2013-01-14 02:43:00,43.0,37.2,30.22,ENE,67,0.0,16.0,80,0.00,,,0.00,Weather View 32 v70,2013-01-14 10:43:00,
2013-01-14 02:48:00,42.0,36.3,30.23,ESE,112,0.0,16.0,80,0.00,,,0.00,Weather View 32 v70,2013-01-14 10:48:00,
2013-01-14 02:53:00,42.0,36.3,30.23,NW,315,0.0,16.0,80,0.00,,,0.00,Weather View 32 v70,2013-01-14 10:53:00,
2013-01-14 02:58:00,42.0,36.3,30.24,NNE,22,0.0,16.0,80,0.00,,,0.00,Weather View 32 v70,2013-01-14 10:58:00,
2013-01-14 03:03:00,41.0,35.3,30.25,NE,45,1.0,16.0,80,0.00,,,0.00,Weather View 32 v70,2013-01-14 11:03:00,
2013-01-14 03:08:00,42.0,36.3,30.24,NE,45,2.0,16.0,80,0.00,,,0.00,Weather View 32 v70,2013-01-14 11:08:00,
2013-01-14 03:13:00,42.0,36.3,30.24,ENE,67,2.0,16.0,80,0.00,,,0.00,Weather View 32 v70,2013-01-14 11:13:00,
2013-01-14 03:18:00,42.0,36.3,30.24,ENE,67,1.0,18.0,80,0.00,,,0.00,Weather View 32 v70,2013-01-14 11:18:00,
2013-01-14 03:23:00,42.0,36.3,30.25,ENE,67,6.0,18.0,80,0.00,,,0.00,Weather View 32 v70,2013-01-14 11:23:00,
2013-01-14 03:28:00,42.0,36.3,30.25,NE,45,4.0,18.0,80,0.00,,,0.00,Weather View 32 v70,2013-01-14 11:28:00,
2013-01-14 03:33:00,42.0,36.3,30.25,NNE,22,7.0,18.0,80,0.00,,,0.00,Weather View 32 v70,2013-01-14 11:33:00,
2013-01-14 03:38:00,42.0,36.3,30.25,ENE,67,2.0,18.0,80,0.00,,,0.00,Weather View 32 v70,2013-01-14 11:38:00,
2013-01-14 03:43:00,42.0,36.3,30.25,NE,45,8.0,18.0,80,0.00,,,0.00,Weather View 32 v70,2013-01-14 11:43:00,
2013-01-14 03:48:00,42.0,36.3,30.25,NE,45,6.0,18.0,80,0.00,,,0.00,Weather View 32 v70,2013-01-14 11:48:00,
2013-01-14 03:54:00,42.0,36.3,30.25,NNE,22,5.0,18.0,80,0.00,,,0.00,Weather View 32 v70,2013-01-14 11:54:00,
2013-01-14 03:58:00,41.0,35.6,30.25,NE,45,0.0,18.0,81,0.00,,,0.00,Weather View 32 v70,2013-01-14 11:58:00,
2013-01-14 04:03:00,41.0,35.6,30.25,NE,45,0.0,18.0,81,0.00,,,0.00,Weather View 32 v70,2013-01-14 12:03:00,
2013-01-14 04:08:00,41.0,35.6,30.25,NE,45,0.0,18.0,81,0.00,,,0.00,Weather View 32 v70,2013-01-14 12:08:00,
2013-01-14 04:13:00,40.0,34.6,30.25,NE,45,0.0,18.0,81,0.00,,,0.00,Weather View 32 v70,2013-01-14 12:13:00,
2013-01-14 04:18:00,40.0,34.6,30.25,NNE,22,2.0,13.0,81,0.00,,,0.00,Weather View 32 v70,2013-01-14 12:18:00,
2013-01-14 04:23:00,40.0,34.9,30.25,NE,45,1.0,13.0,82,0.00,,,0.00,Weather View 32 v70,2013-01-14 12:23:00,
2013-01-14 04:28:00,40.0,34.9,30.25,ENE,67,0.0,13.0,82,0.00,,,0.00,Weather View 32 v70,2013-01-14 12:28:00,
2013-01-14 04:33:00,40.0,34.9,30.25,ENE,67,0.0,13.0,82,0.00,,,0.00,Weather View 32 v70,2013-01-14 12:33:00,
2013-01-14 04:38:00,39.0,34.0,30.25,ENE,67,0.0,13.0,82,0.00,,,0.00,Weather View 32 v70,2013-01-14 12:38:00,
2013-01-14 04:43:00,39.0,34.3,30.26,NNE,22,0.0,13.0,83,0.00,,,0.00,Weather View 32 v70,2013-01-14 12:43:00,
2013-01-14 04:48:00,38.0,33.3,30.26,NW,315,0.0,8.0,83,0.00,,,0.00,Weather View 32 v70,2013-01-14 12:48:00,
2013-01-14 04:53:00,38.0,33.0,30.27,NW,315,0.0,8.0,82,0.00,,,0.00,Weather View 32 v70,2013-01-14 12:53:00,
2013-01-14 04:54:00,38.0,33.0,30.27,NW,315,0.0,8.0,82,0.00,,,0.00,Weather View 32 v70,2013-01-14 12:54:00,
2013-01-14 04:58:00,37.0,32.3,30.27,NW,315,0.0,8.0,83,0.00,,,0.00,Weather View 32 v70,2013-01-14 12:58:00,
2013-01-14 05:08:00,37.0,32.6,30.28,NW,315,0.0,6.0,84,0.00,,,0.00,Weather View 32 v70,2013-01-14 13:08:00,
2013-01-14 05:13:00,37.0,32.6,30.28,NE,45,0.0,6.0,84,0.00,,,0.00,Weather View 32 v70,2013-01-14 13:13:00,
2013-01-14 05:18:00,36.0,31.6,30.27,ENE,67,0.0,6.0,84,0.00,,,0.00,Weather View 32 v70,2013-01-14 13:18:00,
2013-01-14 05:23:00,37.0,32.6,30.28,ENE,67,0.0,6.0,84,0.00,,,0.00,Weather View 32 v70,2013-01-14 13:23:00,
2013-01-14 05:28:00,37.0,32.6,30.27,ESE,112,0.0,4.0,84,0.00,,,0.00,Weather View 32 v70,2013-01-14 13:28:00,
2013-01-14 05:33:00,37.0,32.6,30.27,SE,135,0.0,3.0,84,0.00,,,0.00,Weather View 32 v70,2013-01-14 13:33:00,
2013-01-14 05:38:00,37.0,32.6,30.28,SW,225,0.0,3.0,84,0.00,,,0.00,Weather View 32 v70,2013-01-14 13:38:00,
2013-01-14 05:43:00,37.0,32.6,30.28,SW,225,0.0,3.0,84,0.00,,,0.00,Weather View 32 v70,2013-01-14 13:43:00,
2013-01-14 05:53:00,36.0,31.6,30.28,WNW,292,0.0,2.0,84,0.00,,,0.00,Weather View 32 v70,2013-01-14 13:53:00,
2013-01-14 05:54:00,36.0,31.6,30.28,WNW,292,0.0,2.0,84,0.00,,,0.00,Weather View 32 v70,2013-01-14 13:54:00,
2013-01-14 06:03:00,37.0,32.3,30.29,ESE,112,0.0,2.0,83,0.00,,,0.00,Weather View 32 v70,2013-01-14 14:03:00,
2013-01-14 06:08:00,36.0,31.6,30.29,ESE,112,0.0,2.0,84,0.00,,,0.00,Weather View 32 v70,2013-01-14 14:08:00,
2013-01-14 06:13:00,36.0,31.6,30.30,ESE,112,0.0,2.0,84,0.00,,,0.00,Weather View 32 v70,2013-01-14 14:13:00,
2013-01-14 06:18:00,35.0,30.9,30.31,ESE,112,0.0,2.0,85,0.00,,,0.00,Weather View 32 v70,2013-01-14 14:18:00,
2013-01-14 06:23:00,35.0,30.9,30.31,ESE,112,0.0,2.0,85,0.00,,,0.00,Weather View 32 v70,2013-01-14 14:23:00,
2013-01-14 06:28:00,35.0,30.9,30.31,ESE,112,0.0,2.0,85,0.00,,,0.00,Weather View 32 v70,2013-01-14 14:28:00,
2013-01-14 06:33:00,35.0,30.9,30.31,ESE,112,0.0,2.0,85,0.00,,,0.00,Weather View 32 v70,2013-01-14 14:33:00,
2013-01-14 06:38:00,35.0,30.9,30.31,ESE,112,0.0,2.0,85,0.00,,,0.00,Weather View 32 v70,2013-01-14 14:38:00,
2013-01-14 06:43:00,35.0,30.9,30.32,ESE,112,0.0,2.0,85,0.00,,,0.00,Weather View 32 v70,2013-01-14 14:43:00,
2013-01-14 06:48:00,35.0,30.9,30.32,NE,45,0.0,2.0,85,0.00,,,0.00,Weather View 32 v70,2013-01-14 14:48:00,
2013-01-14 06:53:00,36.0,31.3,30.31,ESE,112,0.0,3.0,83,0.00,,,0.00,Weather View 32 v70,2013-01-14 14:53:00,
2013-01-14 06:55:00,36.0,31.3,30.31,ESE,112,0.0,3.0,83,0.00,,,0.00,Weather View 32 v70,2013-01-14 14:55:00,
2013-01-14 06:58:00,36.0,30.7,30.31,East,90,0.0,3.0,81,0.00,,,0.00,Weather View 32 v70,2013-01-14 14:58:00,
2013-01-14 07:03:00,36.0,28.5,30.32,SE,135,0.0,3.0,74,0.00,,,0.00,Weather View 32 v70,2013-01-14 15:03:00,
2013-01-14 07:08:00,36.0,26.1,30.31,SE,135,0.0,3.0,67,0.00,,,0.00,Weather View 32 v70,2013-01-14 15:08:00,
2013-01-14 07:13:00,36.0,25.7,30.31,SE,135,0.0,3.0,66,0.00,,,0.00,Weather View 32 v70,2013-01-14 15:13:00,
2013-01-14 07:18:00,36.0,25.4,30.31,SE,135,0.0,3.0,65,0.00,,,0.00,Weather View 32 v70,2013-01-14 15:18:00,
2013-01-14 07:23:00,35.0,24.4,30.32,SE,135,0.0,3.0,65,0.00,,,0.00,Weather View 32 v70,2013-01-14 15:23:00,
2013-01-14 07:28:00,35.0,19.6,30.33,SE,135,0.0,3.0,53,0.00,,,0.00,Weather View 32 v70,2013-01-14 15:28:00,
2013-01-14 07:33:00,35.0,24.0,30.33,SE,135,0.0,3.0,64,0.00,,,0.00,Weather View 32 v70,2013-01-14 15:33:00,
2013-01-14 07:38:00,35.0,22.5,30.33,SE,135,0.0,3.0,60,0.00,,,0.00,Weather View 32 v70,2013-01-14 15:38:00,
2013-01-14 07:43:00,36.0,23.0,30.32,SW,225,0.0,3.0,59,0.00,,,0.00,Weather View 32 v70,2013-01-14 15:43:00,
2013-01-14 07:48:00,36.0,22.6,30.32,SE,135,0.0,3.0,58,0.00,,,0.00,Weather View 32 v70,2013-01-14 15:48:00,
2013-01-14 07:53:00,37.0,23.2,30.32,SE,135,0.0,3.0,57,0.00,,,0.00,Weather View 32 v70,2013-01-14 15:53:00,
2013-01-14 07:55:00,37.0,23.2,30.32,SE,135,0.0,3.0,57,0.00,,,0.00,Weather View 32 v70,2013-01-14 15:55:00,
2013-01-14 07:58:00,38.0,24.1,30.32,SE,135,0.0,4.0,57,0.00,,,0.00,Weather View 32 v70,2013-01-14 15:58:00,
2013-01-14 08:03:00,39.0,-54.0,30.32,SE,135,0.0,4.0,1,0.00,,,0.00,Weather View 32 v70,2013-01-14 16:03:00,
2013-01-14 08:08:00,39.0,24.6,30.32,ESE,112,0.0,4.0,56,0.00,,,0.00,Weather View 32 v70,2013-01-14 16:08:00,
2013-01-14 08:15:00,40.0,25.1,30.32,ESE,112,0.0,4.0,55,0.00,,,0.00,Weather View 32 v70,2013-01-14 16:15:00,
2013-01-14 08:20:00,41.0,25.6,30.32,East,90,0.0,7.0,54,0.00,,,0.00,Weather View 32 v70,2013-01-14 16:20:00,
2013-01-14 08:25:00,41.0,25.6,30.31,East,90,0.0,7.0,54,0.00,,,0.00,Weather View 32 v70,2013-01-14 16:25:00,
2013-01-14 08:30:00,42.0,26.5,30.31,SE,135,7.0,8.0,54,0.00,,,0.00,Weather View 32 v70,2013-01-14 16:30:00,
2013-01-14 08:35:00,42.0,26.1,30.32,SE,135,0.0,8.0,53,0.00,,,0.00,Weather View 32 v70,2013-01-14 16:35:00,
2013-01-14 08:40:00,42.0,26.1,30.33,SE,135,1.0,8.0,53,0.00,,,0.00,Weather View 32 v70,2013-01-14 16:40:00,
2013-01-14 08:45:00,43.0,-51.5,30.32,SE,135,0.0,8.0,1,0.00,,,0.00,Weather View 32 v70,2013-01-14 16:45:00,
2013-01-14 08:50:00,43.0,27.0,30.32,ESE,112,0.0,8.0,53,0.00,,,0.00,Weather View 32 v70,2013-01-14 16:50:00,
2013-01-14 08:55:00,43.0,26.6,30.32,ESE,112,4.0,8.0,52,0.00,,,0.00,Weather View 32 v70,2013-01-14 16:55:00,
2013-01-14 08:58:00,43.0,26.6,30.32,ESE,112,4.0,8.0,52,0.00,,,0.00,Weather View 32 v70,2013-01-14 16:58:00,
2013-01-14 09:00:00,43.0,26.6,30.33,SE,135,2.0,8.0,52,0.00,,,0.00,Weather View 32 v70,2013-01-14 17:00:00,
2013-01-14 09:05:00,43.0,26.6,30.33,ESE,112,0.0,9.0,52,0.00,,,0.00,Weather View 32 v70,2013-01-14 17:05:00,
2013-01-14 09:10:00,43.0,26.6,30.33,ESE,112,4.0,9.0,52,0.00,,,0.00,Weather View 32 v70,2013-01-14 17:10:00,
2013-01-14 09:15:00,43.0,26.6,30.33,SE,135,0.0,9.0,52,0.00,,,0.00,Weather View 32 v70,2013-01-14 17:15:00,
2013-01-14 09:20:00,44.0,-50.9,30.33,SE,135,4.0,9.0,1,0.00,,,0.00,Weather View 32 v70,2013-01-14 17:20:00,
2013-01-14 09:25:00,44.0,27.0,30.33,SE,135,4.0,9.0,51,0.00,,,0.00,Weather View 32 v70,2013-01-14 17:25:00,
2013-01-14 09:30:00,44.0,27.0,30.33,ESE,112,7.0,9.0,51,0.00,,,0.00,Weather View 32 v70,2013-01-14 17:30:00,
2013-01-14 09:35:00,44.0,27.0,30.33,ESE,112,4.0,9.0,51,0.00,,,0.00,Weather View 32 v70,2013-01-14 17:35:00,
2013-01-14 09:40:00,45.0,27.9,30.33,SE,135,3.0,9.0,51,0.00,,,0.00,Weather View 32 v70,2013-01-14 17:40:00,
2013-01-14 09:45:00,45.0,27.0,30.32,SE,135,2.0,9.0,49,0.00,,,0.00,Weather View 32 v70,2013-01-14 17:45:00,
2013-01-14 09:50:00,45.0,27.0,30.33,NNW,337,0.0,9.0,49,0.00,,,0.00,Weather View 32 v70,2013-01-14 17:50:00,
2013-01-14 09:55:00,46.0,-49.6,30.32,ESE,112,3.0,9.0,1,0.00,,,0.00,Weather View 32 v70,2013-01-14 17:55:00,
2013-01-14 09:58:00,46.0,-49.6,30.32,ESE,112,3.0,9.0,1,0.00,,,0.00,Weather View 32 v70,2013-01-14 17:58:00,
2013-01-14 10:00:00,45.0,27.0,30.32,North,360,3.0,9.0,49,0.00,,,0.00,Weather View 32 v70,2013-01-14 18:00:00,
2013-01-14 10:05:00,46.0,27.9,30.32,SE,135,0.0,9.0,49,0.00,,,0.00,Weather View 32 v70,2013-01-14 18:05:00,
2013-01-14 10:10:00,45.0,27.0,30.33,ESE,112,2.0,12.0,49,0.00,,,0.00,Weather View 32 v70,2013-01-14 18:10:00,
2013-01-14 10:15:00,45.0,27.0,30.33,ESE,112,6.0,12.0,49,0.00,,,0.00,Weather View 32 v70,2013-01-14 18:15:00,
2013-01-14 10:20:00,46.0,27.9,30.33,East,90,0.0,12.0,49,0.00,,,0.00,Weather View 32 v70,2013-01-14 18:20:00,
2013-01-14 10:25:00,46.0,27.9,30.32,East,90,10.0,12.0,49,0.00,,,0.00,Weather View 32 v70,2013-01-14 18:25:00,
2013-01-14 10:30:00,46.0,-49.6,30.33,North,360,1.0,12.0,1,0.00,,,0.00,Weather View 32 v70,2013-01-14 18:30:00,
2013-01-14 10:35:00,47.0,28.8,30.33,North,360,4.0,12.0,49,0.00,,,0.00,Weather View 32 v70,2013-01-14 18:35:00,
2013-01-14 10:40:00,47.0,28.3,30.32,NNW,337,0.0,12.0,48,0.00,,,0.00,Weather View 32 v70,2013-01-14 18:40:00,
2013-01-14 10:45:00,47.0,28.3,30.32,East,90,5.0,12.0,48,0.00,,,0.00,Weather View 32 v70,2013-01-14 18:45:00,
2013-01-14 10:50:00,47.0,28.3,30.32,East,90,6.0,12.0,48,0.00,,,0.00,Weather View 32 v70,2013-01-14 18:50:00,
2013-01-14 10:59:00,48.0,29.2,30.32,SW,225,0.0,12.0,48,0.00,,,0.00,Weather View 32 v70,2013-01-14 18:59:00,
2013-01-14 11:00:00,48.0,29.2,30.31,NNW,337,0.0,12.0,48,0.00,,,0.00,Weather View 32 v70,2013-01-14 19:00:00,
2013-01-14 11:05:00,48.0,-48.4,30.31,SE,135,4.0,12.0,1,0.00,,,0.00,Weather View 32 v70,2013-01-14 19:05:00,
2013-01-14 11:10:00,48.0,28.7,30.31,North,360,8.0,13.0,47,0.00,,,0.00,Weather View 32 v70,2013-01-14 19:10:00,
2013-01-14 11:15:00,47.0,28.3,30.32,NW,315,0.0,15.0,48,0.00,,,0.00,Weather View 32 v70,2013-01-14 19:15:00,
2013-01-14 11:20:00,48.0,28.7,30.31,East,90,6.0,15.0,47,0.00,,,0.00,Weather View 32 v70,2013-01-14 19:20:00,
2013-01-14 11:25:00,49.0,29.6,30.31,ESE,112,0.0,15.0,47,0.00,,,0.00,Weather View 32 v70,2013-01-14 19:25:00,
2013-01-14 11:30:00,49.0,29.6,30.30,SE,135,8.0,15.0,47,0.00,,,0.00,Weather View 32 v70,2013-01-14 19:30:00,
2013-01-14 11:35:00,48.0,28.2,30.30,East,90,0.0,15.0,46,0.00,,,0.00,Weather View 32 v70,2013-01-14 19:35:00,
2013-01-14 11:40:00,48.0,-48.4,30.30,North,360,6.0,15.0,1,0.00,,,0.00,Weather View 32 v70,2013-01-14 19:40:00,
2013-01-14 11:45:00,48.0,28.2,30.30,East,90,9.0,15.0,46,0.00,,,0.00,Weather View 32 v70,2013-01-14 19:45:00,
2013-01-14 11:50:00,48.0,28.2,30.30,SE,135,1.0,15.0,46,0.00,,,0.00,Weather View 32 v70,2013-01-14 19:50:00,
2013-01-14 11:55:00,49.0,29.1,30.29,East,90,0.0,15.0,46,0.00,,,0.00,Weather View 32 v70,2013-01-14 19:55:00,
2013-01-14 11:59:00,49.0,29.1,30.29,East,90,0.0,15.0,46,0.00,,,0.00,Weather View 32 v70,2013-01-14 19:59:00,
2013-01-14 12:00:00,48.0,27.6,30.29,North,360,7.0,15.0,45,0.00,,,0.00,Weather View 32 v70,2013-01-14 20:00:00,
2013-01-14 12:05:00,49.0,28.5,30.29,West,270,2.0,15.0,45,0.00,,,0.00,Weather View 32 v70,2013-01-14 20:05:00,
2013-01-14 12:10:00,49.0,29.1,30.28,WSW,247,0.0,15.0,46,0.00,,,0.00,Weather View 32 v70,2013-01-14 20:10:00,
2013-01-14 12:15:00,49.0,-47.8,30.28,East,90,3.0,13.0,1,0.00,,,0.00,Weather View 32 v70,2013-01-14 20:15:00,
2013-01-14 12:20:00,49.0,28.5,30.28,East,90,0.0,13.0,45,0.00,,,0.00,Weather View 32 v70,2013-01-14 20:20:00,
2013-01-14 12:25:00,50.0,29.5,30.27,SW,225,0.0,13.0,45,0.00,,,0.00,Weather View 32 v70,2013-01-14 20:25:00,
2013-01-14 12:30:00,50.0,29.5,30.26,East,90,0.0,13.0,45,0.00,,,0.00,Weather View 32 v70,2013-01-14 20:30:00,
2013-01-14 12:35:00,50.0,28.9,30.26,SW,225,1.0,13.0,44,0.00,,,0.00,Weather View 32 v70,2013-01-14 20:35:00,
2013-01-14 12:40:00,50.0,28.9,30.26,North,360,4.0,13.0,44,0.00,,,0.00,Weather View 32 v70,2013-01-14 20:40:00,
2013-01-14 12:45:00,50.0,29.5,30.27,East,90,0.0,13.0,45,0.00,,,0.00,Weather View 32 v70,2013-01-14 20:45:00,
2013-01-14 12:50:00,51.0,-46.6,30.26,East,90,3.0,13.0,1,0.00,,,0.00,Weather View 32 v70,2013-01-14 20:50:00,
2013-01-14 12:55:00,51.0,29.2,30.26,SE,135,2.0,13.0,43,0.00,,,0.00,Weather View 32 v70,2013-01-14 20:55:00,
2013-01-14 13:00:00,51.0,29.2,30.26,East,90,5.0,12.0,43,0.00,,,0.00,Weather View 32 v70,2013-01-14 21:00:00,
2013-01-14 13:10:00,51.0,29.2,30.27,North,360,3.0,11.0,43,0.00,,,0.00,Weather View 32 v70,2013-01-14 21:10:00,
2013-01-14 13:15:00,51.0,29.2,30.27,SE,135,6.0,11.0,43,0.00,,,0.00,Weather View 32 v70,2013-01-14 21:15:00,
2013-01-14 13:20:00,51.0,28.7,30.27,East,90,6.0,11.0,42,0.00,,,0.00,Weather View 32 v70,2013-01-14 21:20:00,
2013-01-14 13:25:00,51.0,-46.6,30.27,SE,135,1.0,11.0,1,0.00,,,0.00,Weather View 32 v70,2013-01-14 21:25:00,
2013-01-14 13:30:00,51.0,28.7,30.27,SE,135,0.0,11.0,42,0.00,,,0.00,Weather View 32 v70,2013-01-14 21:30:00,
2013-01-14 13:35:00,52.0,29.6,30.27,East,90,5.0,11.0,42,0.00,,,0.00,Weather View 32 v70,2013-01-14 21:35:00,
2013-01-14 13:40:00,52.0,29.6,30.27,ESE,112,0.0,11.0,42,0.00,,,0.00,Weather View 32 v70,2013-01-14 21:40:00,
2013-01-14 13:45:00,52.0,29.6,30.27,East,90,0.0,11.0,42,0.00,,,0.00,Weather View 32 v70,2013-01-14 21:45:00,
2013-01-14 13:50:00,52.0,29.6,30.26,North,360,3.0,11.0,42,0.00,,,0.00,Weather View 32 v70,2013-01-14 21:50:00,
2013-01-14 13:55:00,52.0,29.6,30.27,East,90,0.0,11.0,42,0.00,,,0.00,Weather View 32 v70,2013-01-14 21:55:00,
2013-01-14 14:00:00,53.0,-45.3,30.27,East,90,0.0,11.0,1,0.00,,,0.00,Weather View 32 v70,2013-01-14 22:00:00,
2013-01-14 14:05:00,53.0,29.9,30.27,North,360,0.0,10.0,41,0.00,,,0.00,Weather View 32 v70,2013-01-14 22:05:00,
2013-01-14 14:10:00,53.0,29.9,30.27,East,90,5.0,10.0,41,0.00,,,0.00,Weather View 32 v70,2013-01-14 22:10:00,
2013-01-14 14:15:00,51.0,28.1,30.27,NNW,337,4.0,10.0,41,0.00,,,0.00,Weather View 32 v70,2013-01-14 22:15:00,
2013-01-14 14:20:00,52.0,29.0,30.27,East,90,0.0,10.0,41,0.00,,,0.00,Weather View 32 v70,2013-01-14 22:20:00,
2013-01-14 14:25:00,52.0,29.0,30.27,East,90,0.0,10.0,41,0.00,,,0.00,Weather View 32 v70,2013-01-14 22:25:00,
2013-01-14 14:30:00,53.0,29.9,30.27,North,360,6.0,10.0,41,0.00,,,0.00,Weather View 32 v70,2013-01-14 22:30:00,
2013-01-14 14:35:00,53.0,-45.3,30.27,East,90,5.0,10.0,1,0.00,,,0.00,Weather View 32 v70,2013-01-14 22:35:00,
2013-01-14 14:40:00,52.0,29.0,30.27,North,360,8.0,10.0,41,0.00,,,0.00,Weather View 32 v70,2013-01-14 22:40:00,
2013-01-14 14:45:00,52.0,29.0,30.28,East,90,9.0,10.0,41,0.00,,,0.00,Weather View 32 v70,2013-01-14 22:45:00,
2013-01-14 14:50:00,52.0,29.0,30.29,East,90,0.0,10.0,41,0.00,,,0.00,Weather View 32 v70,2013-01-14 22:50:00,
2013-01-14 14:55:00,52.0,29.0,30.29,North,360,0.0,10.0,41,0.00,,,0.00,Weather View 32 v70,2013-01-14 22:55:00,
2013-01-14 15:00:00,53.0,29.9,30.28,WNW,292,0.0,10.0,41,0.00,,,0.00,Weather View 32 v70,2013-01-14 23:00:00,
2013-01-14 15:05:00,53.0,29.9,30.27,North,360,0.0,10.0,41,0.00,,,0.00,Weather View 32 v70,2013-01-14 23:05:00,
2013-01-14 15:10:00,53.0,-45.3,30.27,North,360,0.0,10.0,1,0.00,,,0.00,Weather View 32 v70,2013-01-14 23:10:00,
2013-01-14 15:15:00,53.0,29.9,30.27,NW,315,0.0,10.0,41,0.00,,,0.00,Weather View 32 v70,2013-01-14 23:15:00,
2013-01-14 15:20:00,53.0,29.9,30.28,North,360,2.0,10.0,41,0.00,,,0.00,Weather View 32 v70,2013-01-14 23:20:00,
2013-01-14 15:25:00,52.0,29.0,30.29,SE,135,0.0,12.0,41,0.00,,,0.00,Weather View 32 v70,2013-01-14 23:25:00,
2013-01-14 15:30:00,52.0,29.0,30.29,ESE,112,0.0,12.0,41,0.00,,,0.00,Weather View 32 v70,2013-01-14 23:30:00,
2013-01-14 15:35:00,52.0,29.0,30.29,North,360,0.0,12.0,41,0.00,,,0.00,Weather View 32 v70,2013-01-14 23:35:00,
2013-01-14 15:40:00,53.0,29.9,30.29,North,360,3.0,12.0,41,0.00,,,0.00,Weather View 32 v70,2013-01-14 23:40:00,
2013-01-14 15:45:00,53.0,-45.3,30.28,North,360,0.0,12.0,1,0.00,,,0.00,Weather View 32 v70,2013-01-14 23:45:00,
2013-01-14 15:50:00,53.0,29.9,30.28,North,360,0.0,12.0,41,0.00,,,0.00,Weather View 32 v70,2013-01-14 23:50:00,
2013-01-14 15:55:00,53.0,30.5,30.28,North,360,6.0,12.0,42,0.00,,,0.00,Weather View 32 v70,2013-01-14 23:55:00,
2013-01-14 16:00:00,52.0,29.6,30.29,NNW,337,0.0,12.0,42,0.00,,,0.00,Weather View 32 v70,2013-01-15 00:00:00,
2013-01-14 16:05:00,52.0,29.6,30.29,East,90,4.0,12.0,42,0.00,,,0.00,Weather View 32 v70,2013-01-15 00:05:00,
2013-01-14 16:10:00,52.0,30.7,30.29,SW,225,0.0,12.0,44,0.00,,,0.00,Weather View 32 v70,2013-01-15 00:10:00,
2013-01-14 16:20:00,53.0,-45.3,30.28,SW,225,0.0,12.0,1,0.00,,,0.00,Weather View 32 v70,2013-01-15 00:20:00,
2013-01-14 16:25:00,53.0,31.1,30.28,SW,225,0.0,9.0,43,0.00,,,0.00,Weather View 32 v70,2013-01-15 00:25:00,
2013-01-14 16:30:00,52.0,30.7,30.28,West,270,0.0,7.0,44,0.00,,,0.00,Weather View 32 v70,2013-01-15 00:30:00,
2013-01-14 16:35:00,52.0,31.3,30.29,WNW,292,0.0,7.0,45,0.00,,,0.00,Weather View 32 v70,2013-01-15 00:35:00,
2013-01-14 16:40:00,52.0,36.3,30.29,WNW,292,3.0,7.0,55,0.00,,,0.00,Weather View 32 v70,2013-01-15 00:40:00,
2013-01-14 16:45:00,51.0,37.6,30.29,NW,315,0.0,7.0,60,0.00,,,0.00,Weather View 32 v70,2013-01-15 00:45:00,
2013-01-14 16:50:00,49.0,36.5,30.29,NW,315,0.0,7.0,62,0.00,,,0.00,Weather View 32 v70,2013-01-15 00:50:00,
2013-01-14 16:55:00,49.0,23.2,30.30,WSW,247,0.0,7.0,36,0.00,,,0.00,Weather View 32 v70,2013-01-15 00:55:00,
2013-01-14 17:00:00,48.0,35.6,30.30,West,270,0.0,6.0,62,0.00,,,0.00,Weather View 32 v70,2013-01-15 01:00:00,
2013-01-14 17:05:00,48.0,35.6,30.30,West,270,0.0,5.0,62,0.00,,,0.00,Weather View 32 v70,2013-01-15 01:05:00,
2013-01-14 17:10:00,48.0,35.6,30.29,WSW,247,0.0,4.0,62,0.00,,,0.00,Weather View 32 v70,2013-01-15 01:10:00,
2013-01-14 17:15:00,47.0,34.6,30.29,WSW,247,0.0,4.0,62,0.00,,,0.00,Weather View 32 v70,2013-01-15 01:15:00,
2013-01-14 17:20:00,47.0,35.0,30.30,WSW,247,0.0,4.0,63,0.00,,,0.00,Weather View 32 v70,2013-01-15 01:20:00,
2013-01-14 17:25:00,46.0,34.1,30.31,WSW,247,0.0,4.0,63,0.00,,,0.00,Weather View 32 v70,2013-01-15 01:25:00,
2013-01-14 17:30:00,46.0,33.3,30.31,WSW,247,1.0,4.0,61,0.00,,,0.00,Weather View 32 v70,2013-01-15 01:30:00,
2013-01-14 17:35:00,46.0,34.9,30.31,West,270,0.0,4.0,65,0.00,,,0.00,Weather View 32 v70,2013-01-15 01:35:00,
2013-01-14 17:40:00,46.0,35.3,30.30,West,270,0.0,4.0,66,0.00,,,0.00,Weather View 32 v70,2013-01-15 01:40:00,
2013-01-14 17:45:00,46.0,35.6,30.31,SW,225,0.0,3.0,67,0.00,,,0.00,Weather View 32 v70,2013-01-15 01:45:00,
2013-01-14 17:50:00,46.0,36.4,30.31,West,270,0.0,3.0,69,0.00,,,0.00,Weather View 32 v70,2013-01-15 01:50:00,
2013-01-14 17:55:00,46.0,36.8,30.31,WSW,247,0.0,3.0,70,0.00,,,0.00,Weather View 32 v70,2013-01-15 01:55:00,
2013-01-14 18:00:00,46.0,37.1,30.31,SW,225,0.0,3.0,71,0.00,,,0.00,Weather View 32 v70,2013-01-15 02:00:00,
2013-01-14 18:05:00,46.0,37.5,30.30,WSW,247,0.0,3.0,72,0.00,,,0.00,Weather View 32 v70,2013-01-15 02:05:00,
2013-01-14 18:10:00,46.0,37.8,30.30,West,270,0.0,3.0,73,0.00,,,0.00,Weather View 32 v70,2013-01-15 02:10:00,
2013-01-14 18:15:00,46.0,38.2,30.30,West,270,0.0,3.0,74,0.00,,,0.00,Weather View 32 v70,2013-01-15 02:15:00,
2013-01-14 18:20:00,46.0,38.5,30.30,NW,315,0.0,3.0,75,0.00,,,0.00,Weather View 32 v70,2013-01-15 02:20:00,
2013-01-14 18:25:00,46.0,38.8,30.30,NNW,337,0.0,3.0,76,0.00,,,0.00,Weather View 32 v70,2013-01-15 02:25:00,
2013-01-14 18:30:00,45.0,37.9,30.30,West,270,0.0,3.0,76,0.00,,,0.00,Weather View 32 v70,2013-01-15 02:30:00,
2013-01-14 18:35:00,45.0,38.2,30.30,West,270,0.0,3.0,77,0.00,,,0.00,Weather View 32 v70,2013-01-15 02:35:00,
2013-01-14 18:40:00,45.0,38.5,30.31,West,270,0.0,3.0,78,0.00,,,0.00,Weather View 32 v70,2013-01-15 02:40:00,
2013-01-14 18:45:00,45.0,38.9,30.31,West,270,0.0,3.0,79,0.00,,,0.00,Weather View 32 v70,2013-01-15 02:45:00,
2013-01-14 18:50:00,44.0,37.9,30.30,West,270,0.0,3.0,79,0.00,,,0.00,Weather View 32 v70,2013-01-15 02:50:00,
2013-01-14 18:55:00,44.0,37.9,30.31,WSW,247,0.0,3.0,79,0.00,,,0.00,Weather View 32 v70,2013-01-15 02:55:00,
2013-01-14 19:03:00,45.0,38.9,30.31,WSW,247,0.0,3.0,79,0.00,,,0.00,Weather View 32 v70,2013-01-15 03:03:00,
2013-01-14 19:05:00,45.0,38.9,30.30,WSW,247,0.0,3.0,79,0.00,,,0.00,Weather View 32 v70,2013-01-15 03:05:00,
2013-01-14 19:10:00,45.0,38.9,30.30,WSW,247,0.0,3.0,79,0.00,,,0.00,Weather View 32 v70,2013-01-15 03:10:00,
2013-01-14 19:15:00,45.0,38.5,30.30,WSW,247,0.0,3.0,78,0.00,,,0.00,Weather View 32 v70,2013-01-15 03:15:00,
2013-01-14 19:20:00,44.0,37.9,30.30,WSW,247,0.0,3.0,79,0.00,,,0.00,Weather View 32 v70,2013-01-15 03:20:00,
2013-01-14 19:25:00,44.0,37.9,30.31,WSW,247,0.0,3.0,79,0.00,,,0.00,Weather View 32 v70,2013-01-15 03:25:00,
2013-01-14 19:30:00,44.0,37.9,30.31,SW,225,0.0,3.0,79,0.00,,,0.00,Weather View 32 v70,2013-01-15 03:30:00,
2013-01-14 19:35:00,44.0,37.9,30.31,West,270,0.0,3.0,79,0.00,,,0.00,Weather View 32 v70,2013-01-15 03:35:00,
2013-01-14 19:40:00,44.0,37.9,30.31,West,270,0.0,3.0,79,0.00,,,0.00,Weather View 32 v70,2013-01-15 03:40:00,
2013-01-14 19:45:00,44.0,37.9,30.31,West,270,0.0,3.0,79,0.00,,,0.00,Weather View 32 v70,2013-01-15 03:45:00,
2013-01-14 19:50:00,44.0,37.6,30.31,West,270,0.0,3.0,78,0.00,,,0.00,Weather View 32 v70,2013-01-15 03:50:00,
2013-01-14 19:55:00,44.0,37.9,30.31,West,270,0.0,3.0,79,0.00,,,0.00,Weather View 32 v70,2013-01-15 03:55:00,
2013-01-14 20:00:00,44.0,37.9,30.31,WSW,247,0.0,2.0,79,0.00,,,0.00,Weather View 32 v70,2013-01-15 04:00:00,
2013-01-14 20:04:00,44.0,37.9,30.31,WSW,247,0.0,2.0,79,0.00,,,0.00,Weather View 32 v70,2013-01-15 04:04:00,
2013-01-14 20:05:00,44.0,37.9,30.31,West,270,0.0,2.0,79,0.00,,,0.00,Weather View 32 v70,2013-01-15 04:05:00,
2013-01-14 20:10:00,44.0,37.9,30.31,WSW,247,0.0,2.0,79,0.00,,,0.00,Weather View 32 v70,2013-01-15 04:10:00,
2013-01-14 20:15:00,44.0,37.9,30.31,WSW,247,0.0,2.0,79,0.00,,,0.00,Weather View 32 v70,2013-01-15 04:15:00,
2013-01-14 20:20:00,44.0,37.9,30.31,WSW,247,0.0,2.0,79,0.00,,,0.00,Weather View 32 v70,2013-01-15 04:20:00,
2013-01-14 20:25:00,44.0,37.6,30.31,WSW,247,0.0,2.0,78,0.00,,,0.00,Weather View 32 v70,2013-01-15 04:25:00,
2013-01-14 20:30:00,44.0,37.9,30.31,WSW,247,0.0,1.0,79,0.00,,,0.00,Weather View 32 v70,2013-01-15 04:30:00,
2013-01-14 20:35:00,44.0,37.9,30.31,WSW,247,0.0,1.0,79,0.00,,,0.00,Weather View 32 v70,2013-01-15 04:35:00,
2013-01-14 20:40:00,44.0,37.9,30.31,WSW,247,0.0,1.0,79,0.00,,,0.00,Weather View 32 v70,2013-01-15 04:40:00,
2013-01-14 20:45:00,44.0,37.2,30.31,WSW,247,0.0,1.0,77,0.00,,,0.00,Weather View 32 v70,2013-01-15 04:45:00,
2013-01-14 20:55:00,44.0,36.9,30.31,WSW,247,0.0,1.0,76,0.00,,,0.00,Weather View 32 v70,2013-01-15 04:55:00,
2013-01-14 21:00:00,44.0,36.9,30.31,WSW,247,0.0,0.0,76,0.00,,,0.00,Weather View 32 v70,2013-01-15 05:00:00,
2013-01-14 21:04:00,44.0,36.9,30.31,WSW,247,0.0,0.0,76,0.00,,,0.00,Weather View 32 v70,2013-01-15 05:04:00,
2013-01-14 21:05:00,44.0,37.2,30.31,WSW,247,0.0,0.0,77,0.00,,,0.00,Weather View 32 v70,2013-01-15 05:05:00,
2013-01-14 21:10:00,44.0,37.6,30.31,WSW,247,0.0,0.0,78,0.00,,,0.00,Weather View 32 v70,2013-01-15 05:10:00,
2013-01-14 21:19:00,44.0,37.9,30.31,WSW,247,0.0,0.0,79,0.00,,,0.00,Weather View 32 v70,2013-01-15 05:19:00,
2013-01-14 21:24:00,44.0,37.9,30.31,WSW,247,0.0,0.0,79,0.00,,,0.00,Weather View 32 v70,2013-01-15 05:24:00,
2013-01-14 21:29:00,44.0,37.9,30.31,WSW,247,0.0,0.0,79,0.00,,,0.00,Weather View 32 v70,2013-01-15 05:29:00,
2013-01-14 21:34:00,43.0,36.9,30.31,WSW,247,0.0,0.0,79,0.00,,,0.00,Weather View 32 v70,2013-01-15 05:34:00,
2013-01-14 21:39:00,43.0,37.2,30.31,WSW,247,0.0,0.0,80,0.00,,,0.00,Weather View 32 v70,2013-01-15 05:39:00,
2013-01-14 21:44:00,43.0,37.2,30.31,WSW,247,0.0,0.0,80,0.00,,,0.00,Weather View 32 v70,2013-01-15 05:44:00,
2013-01-14 21:54:00,42.0,36.3,30.31,NNE,22,0.0,0.0,80,0.00,,,0.00,Weather View 32 v70,2013-01-15 05:54:00,
2013-01-14 21:59:00,43.0,37.2,30.32,NE,45,1.0,2.0,80,0.00,,,0.00,Weather View 32 v70,2013-01-15 05:59:00,
2013-01-14 22:05:00,43.0,37.2,30.32,NNE,22,0.0,2.0,80,0.00,,,0.00,Weather View 32 v70,2013-01-15 06:05:00,
2013-01-14 22:09:00,43.0,37.2,30.32,NNE,22,0.0,2.0,80,0.00,,,0.00,Weather View 32 v70,2013-01-15 06:09:00,
2013-01-14 22:14:00,42.0,36.3,30.32,NNE,22,0.0,2.0,80,0.00,,,0.00,Weather View 32 v70,2013-01-15 06:14:00,
2013-01-14 22:19:00,43.0,37.2,30.32,NNE,22,0.0,2.0,80,0.00,,,0.00,Weather View 32 v70,2013-01-15 06:19:00,
2013-01-14 22:24:00,43.0,37.2,30.32,NW,315,0.0,2.0,80,0.00,,,0.00,Weather View 32 v70,2013-01-15 06:24:00,
2013-01-14 22:29:00,43.0,37.2,30.32,West,270,0.0,2.0,80,0.00,,,0.00,Weather View 32 v70,2013-01-15 06:29:00,
2013-01-14 22:34:00,43.0,37.2,30.32,West,270,0.0,2.0,80,0.00,,,0.00,Weather View 32 v70,2013-01-15 06:34:00,
2013-01-14 22:39:00,43.0,36.9,30.32,West,270,0.0,2.0,79,0.00,,,0.00,Weather View 32 v70,2013-01-15 06:39:00,
2013-01-14 22:44:00,43.0,37.2,30.32,West,270,0.0,2.0,80,0.00,,,0.00,Weather View 32 v70,2013-01-15 06:44:00,
2013-01-14 22:49:00,42.0,36.0,30.32,West,270,0.0,2.0,79,0.00,,,0.00,Weather View 32 v70,2013-01-15 06:49:00,
2013-01-14 22:59:00,41.0,34.3,30.33,West,270,0.0,2.0,77,0.00,,,0.00,Weather View 32 v70,2013-01-15 06:59:00,
2013-01-14 23:04:00,41.0,34.7,30.33,West,270,0.0,0.0,78,0.00,,,0.00,Weather View 32 v70,2013-01-15 07:04:00,
2013-01-14 23:05:00,41.0,34.7,30.33,West,270,0.0,0.0,78,0.00,,,0.00,Weather View 32 v70,2013-01-15 07:05:00,
2013-01-14 23:09:00,40.0,34.0,30.33,West,270,0.0,0.0,79,0.00,,,0.00,Weather View 32 v70,2013-01-15 07:09:00,
2013-01-14 23:14:00,40.0,34.6,30.34,West,270,0.0,0.0,81,0.00,,,0.00,Weather View 32 v70,2013-01-15 07:14:00,
2013-01-14 23:19:00,40.0,34.6,30.34,West,270,0.0,0.0,81,0.00,,,0.00,Weather View 32 v70,2013-01-15 07:19:00,
2013-01-14 23:24:00,41.0,35.6,30.34,West,270,0.0,0.0,81,0.00,,,0.00,Weather View 32 v70,2013-01-15 07:24:00,
2013-01-14 23:29:00,40.0,34.3,30.34,West,270,0.0,0.0,80,0.00,,,0.00,Weather View 32 v70,2013-01-15 07:29:00,
2013-01-14 23:34:00,40.0,34.6,30.35,West,270,0.0,0.0,81,0.00,,,0.00,Weather View 32 v70,2013-01-15 07:34:00,
2013-01-14 23:39:00,40.0,34.6,30.35,West,270,0.0,0.0,81,0.00,,,0.00,Weather View 32 v70,2013-01-15 07:39:00,
2013-01-14 23:49:00,40.0,34.6,30.34,West,270,0.0,0.0,81,0.00,,,0.00,Weather View 32 v70,2013-01-15 07:49:00,
2013-01-14 23:54:00,41.0,35.6,30.34,West,270,0.0,0.0,81,0.00,,,0.00,Weather View 32 v70,2013-01-15 07:54:00,
2013-01-14 23:59:00,41.0,35.3,30.33,West,270,0.0,0.0,80,0.00,,,0.00,Weather View 32 v70,2013-01-15 07:59:00,